Regional Weather Roundup
Issued by NWS Wakefield, VA

Home | Current Version | Previous Version | Text Only | Print | Product List | Glossary On
Versions: 1 2 3 4 5 6 7 8 9 10 11 12 13 14 15 16 17 18 19 20 21 22 23 24 25 26 27 28 29 30 31 32 33 34 35 36 37 38 39 40 41 42 43 44 45 46 47 48 49 50
000
ASUS41 KAKQ 210115
RWRAKQ

REGIONAL WEATHER ROUNDUP
NATIONAL WEATHER SERVICE WAKEFIELD VA
800 PM EST TUE FEB 20 2018

Note: "fair" indicates few or no clouds below 12,000 feet with no
significant weather and/or obstructions to visibility. * = Denotes
station may not report precipitation (e.g., rain,snow,etc.),
thunder or fog.

VAZ042-051-052>054-056-210200-
NORTHERN VIRGINIA

CITY           SKY/WX    TMP DP  RH WIND       PRES   REMARKS
WASH NATIONAL  MOCLDY    69  55  60 S13       30.33R
DULLES         MOCLDY    68  55  63 S14       30.31R
FORT BELVOIR   FAIR      69  54  57 S5        30.33R
QUANTICO       FAIR      70  57  63 SW10G20   30.35R
FREDERICKSBRG* FAIR      67  58  72 S7        30.34S
STAFFORD*      FAIR      69  57  65 SW8       30.39R
WARRENTON      FAIR      69  53  57 S10G23    30.33R
CULPEPER*      FAIR      69  55  61 S10       30.34R
MANASSAS*      FAIR      68  55  63 S12       30.33
LEESBURG*      FAIR      70  55  60 S13       30.31S
WINCHESTER     FAIR      63  54  72 S8        30.29F
FRONT ROYAL*   FAIR      68  54  60 S5        30.28S
LURAY*         FAIR      64  54  68 S7        30.32R
$$

VAZ048-049-060>072-079>083-210200-
CENTRAL AND SOUTH CENTRAL VIRGINIA

CITY           SKY/WX    TMP DP  RH WIND       PRES   REMARKS
RICHMOND       FAIR      60  59  96 S6        30.39R
CHESTERFIELD*  FAIR      63  60  90 S3        30.40R
PETERSBURG*    NOT AVBL
HANOVER        FAIR      67  61  81 S7        30.39R
TAPPAHANNOCK*  FAIR      65  62  91 S5        30.38S
QUINTON*       FAIR      64  64 100 MISG      30.39S
CHARLOTTSVILLE FAIR      67  57  70 S14       30.35R
GORDONSVILLE*  FAIR      65  59  79 SW8       30.35S
ORANGE*        FAIR      64  55  72 S6        30.35S
LOUISA*        FAIR      65  57  74 S5        30.40S
BUMPASS*       FAIR      65  58  75 SW7       30.36S
FARMVILLE*     FAIR     N/A N/A N/A SW5       30.38S
CREWE*         FAIR      62  62 100 CALM      30.40R
FORT PICKETT*  FAIR      64  64 100 S8        30.40S
CHASE CITY*    FAIR      60  60 100 CALM      30.41R
CLARKSVILLE*   MOCLDY    61  61 100 CALM      30.40S
SOUTH HILL*    CLOUDY    57  57 100 CALM      30.47R VSB 1/4
LAWRENCEVILLE*   N/A     59  58  97 CALM      30.41R VSB 1/2
EMPORIA*       FOG       54  54 100 CALM      30.43R VSB 1/4
$$

VAZ088>098-210200-
SOUTHEAST VIRGINIA

CITY           SKY/WX    TMP DP  RH WIND       PRES   REMARKS
NORFOLK        FAIR      59  58  96 CALM      30.42R
VIRGINIA BEACH FAIR      67  61  81 S8        30.41R
NORFOLK NAVAL  MOCLDY    60  58  92 S3        30.43R FOG
WEST POINT*    FAIR      61  59  94 SE3       30.41S
SALUDA*        FAIR      60  60 100 CALM      30.39S
NEWPORT NEWS   FOG       58  57  97 CALM      30.41R VSB 1/4
LANGLEY AFB    FAIR      59  59 100 S3        30.41R FOG
FORT EUSTIS    DRIZZLE   61  59  94 SE3       30.39R
WILLIAMSBURG*  FAIR      61  57  88 CALM      30.41S
HR EXEC AP*    FOG       59  59 100 CALM      30.43R VSB 1/4
FRANKLIN*      FOG       58  57  98 CALM      30.42R VSB 1/4
US460-WAKEFLD  FOG       57  57 100 CALM      30.41S VSB 1/4
$$

VAZ020-022-025-037-045-210200-
WEST CENTRAL AND SOUTHWEST VIRGINIA

CITY           SKY/WX    TMP DP  RH WIND       PRES   REMARKS
STAUNTON*      FAIR      61  53  74 S7        30.37R
WAYNESBORO*    FAIR      63  54  74 S7        30.36S
HOT SPRINGS VA FAIR      55  55 100 S13G18    30.42R
LYNCHBURG      FAIR      60  56  86 S5        30.40R
DANVILLE       FAIR      59  57  93 W6        30.40S
SOUTH BOSTON*  FAIR      62  60  96 CALM      30.40S
MARTINSVILLE   FAIR      57  56  94 CALM      30.44S
ROANOKE        FAIR      62  54  74 SE8       30.41R
BLACKSBURG     FAIR      59  55  85 CALM      30.44R
DUBLIN*        FAIR      60  55  83 S10       30.42S
MARION*        FAIR      62  51  66 CALM      30.42S
HILLSVILLE*    FAIR      56  55  94 S13       30.42S
RICHLANDS*     MOCLDY    64  51  61 S8G16     30.37R
WISE*          MOCLDY    64  50  59 SW6       30.36S
ABINGDON*      FAIR      66  53  63 S5        30.37R
$$

MDZ021>025-VAZ099-100-210200-
SOUTHERN MARYLAND AND THE DELMARVA PENINSULA

CITY           SKY/WX    TMP DP  RH WIND       PRES   REMARKS
PATUXENT RIVER FAIR      49  49 100 SE7       30.36S
BAY BRIDGE APT FAIR      59  57  94 SE10      30.35R
LEONARDTOWN    FAIR      64  59  82 S6        30.38R
DOVER          PTCLDY    62  60  93 S13       30.35S
GEORGETOWN     FAIR      63  60  90 S12       30.38S
EASTON         CLEAR     63  59  88 S12       30.39S
CAMBRIDGE      CLOUDY    59  59 100 S10       30.38R FOG
SALISBURY      FAIR      62  61  96 S6        30.39S
OCEAN CITY     CLOUDY    53  53 100 S6        30.41S FOG
WALLOPS ISLAND FOG      N/A N/A N/A S8        30.41S VSB 1/4
ACCOMACK*      FOG       60  59  98 S6        30.41S VSB 1/4
$$

NCZ012>017-030>032-210200-
NORTH CENTRAL AND EASTERN NORTH CAROLINA

CITY           SKY/WX    TMP DP  RH WIND       PRES   REMARKS
ROANOKE RAPIDS MOCLDY    61  61 100 CALM      30.41S FOG
RALEIGH        MOCLDY    65  63  93 SE3       30.41S
ELIZABETH CITY FAIR      68  66  93 S13       30.43R
AHOSKIE*       FOG       60  60 100 CALM      30.42S VSB 1/4
EDENTON*       FAIR      66  64  90 S8        30.45R
CURRITUCK*     FAIR      65  61  86 S6        30.44R
KILL DEVIL HLS FAIR     N/A N/A N/A CALM      30.44S
MANTEO         FAIR      59  59  99 SW10      30.46S
CAPE HATTERAS  FAIR      66  64  93 S9        30.47F
TARBORO*       NOT AVBL
GOLDSBORO      FAIR      70  64  82 S8        30.41R
WASHINGTON     FAIR      69  65  86 S7        30.45R
GREENVILLE     FAIR      70  63  78 S12       30.44R
NEW BERN       FAIR      67  65  93 S6        30.47R
WILMINGTON     FAIR      68  66  93 SE5       30.45S
$$

VAZ048-210200-
ELSEWHERE

CITY           SKY/WX    TMP DP  RH WIND       PRES   REMARKS
HARRISBURG PA  FAIR      53  51  93 CALM      30.26F FOG
BALTIMORE      FAIR      61  58  90 SE7       30.32R
ANNAPOLIS      FAIR      57  56  96 S14       30.34R
ANDREWS AFB    CLEAR     68  55  64 S17       30.34R
PHILADELPHIA   MOCLDY    63  57  81 SW10      30.33S
HENDERSON NC   MOCLDY    59  58  97 CALM      30.41S
GREENSBORO     FAIR      60  59  96 NW7       30.41R
ROCKY MOUNT    FAIR      69  62  78 S8        30.42R
$$

VAZ100-210200-
MARINE

STATION/POSITION TIME  TEMP    WIND        PRES    WAVE   SWELL
                       AIR SEA DIR/SP/G            HT/PER HT/PER
                 (UTC) (F)     (DEG/KT/KT) (MB)    (FT/S) (FT/S)
BRANDYWINE LGT   0036   62     200/ 18/ 19 1028.5R
CAPE MAY NJ      0036   56 42  170/ 12/ 18 1028.1R
LEWES DE         0036   63 42  180/  6/  9 1028.6R
15NM E FENWICK I 2350   47 42  180/ 14/ 16 1029.7    3/11   2/11
OCEAN-CITY-INLET 0036   45 47  210/ 11/ 12 1030.2R
WACHAPREAGUE VA  0036   56 54  210/  5/  7 1029.9S
GOOSES REEF MD   0100   47 40  160/ 16/ 17 1028.1    2/ 3
COVE POINT MD    0036   50     180/ 15/ 16 1028.7R
SOLOMONS ISLAND  0036   54 42  120/  7/  8 1027.9R
BISHOPS HEAD MD  0036   49 49  160/ 11/ 12 1029.2S
PINEY POINT MD   0048          150/  5/  7   N/A
POTOMAC MD       0100   47 42   10/ 10/ 10 1028.3    1/ 3
CAMBRIDGE MD     0036   58 45              1029.1R
LEWISETTA VA     0036   63 47  200/  7/  8 1028.5S
RAPPAHANNOCK LGT 0048          160/  8/  9 1030.3R
STINGRAY PT      0100   49 42  210/  8/ 10 1030.9    1
YORK RVR RNG VA  0048   53     190/  8/  9 1030.3R
YORKTOWN VA      0048   63 47  180/  4/  5 1029.4R
DOMINION TERM VA 0048   61     110/  2/  2 1030.1R
KIPTOPEKE VA     0048      45  170/  3/  5   N/A
CAPE HENRY VA    0048   65     170/  5/  7   N/A
S CRANEY ISL VA  0048   61     170/  3/  3 1029.7R
CAPE HENRY BUOY  0100      44                N/A     3/12   2/12
1ST LANDING BUOY 0100   51 42  190/  8/  8 1030.0    1/ 5
CAPE CHARLES BUO 0051      43                N/A     3/11   2/11
64NM E OF VA BCH 2350   57 51  180/ 14/ 14 1031.7    4/12   3/12
DUCK PIER NC     0048   67 46  180/ 17/ 21 1030.1S
44100 DUCK FRF   0045      46                N/A     4/12   2/12
44056 DUCK FRF   0100      45                N/A     3/13   2/13
OREGON INLET NC  0042   60 56  170/  6/  8 1031.5F
HATTERAS NC      0048   66 58  170/  6/  9 1031.7F
DIAMOND SHLS NC  0050   72 72  180/ 16/ 17 1032.2F   4/12   3/12
$$



USA.gov is the U.S. government's official web portal to all federal, state and local government web resources and services.